[[{"header":{"parameterUnit":"m.s-1","parameterCategory":1,"la1":30.2991,"la2":30.254,"lo1":-89.0895,"lo2":-89.0444,"dy":0.0017,"dx":0.0017,"nx":28,"ny":28,"refTime":"2024-05-12T09:00:00:Z","depth":0,"parameterNumber":2,"parameterNumberName":"U-component_of_WINDS"},"data":[0,0,0,0,0,0,0,0,0,0,0,0,0,0,0,0,0,0,0,0,0,0,0,0,0,0,0,0,0,0,0,0,0,0,0,0,0,0,0,0,0,0,0,0,0,0,0,0,0,0,0,0,0,0,0,0,0,0,-1.9105,-1.9105,0,-1.9132,-1.9132,-1.9133,-1.9108,-1.9107,-1.9106,-1.9105,-1.9128,-1.913,-1.9131,0,0,0,0,0,0,0,0,0,0,0,0,0,-1.9029,-1.903,-1.9105,-1.9105,-1.9106,-1.9132,-1.9132,-1.9133,-1.9108,-1.9106,-1.9105,-1.9104,-1.9128,-1.913,-1.9132,0,0,0,0,0,0,0,0,0,0,0,0,0,-1.9059,-1.9031,-1.9105,-1.9097,-1.9096,-1.9132,-1.9132,-1.9133,-1.9108,-1.9106,-1.9105,-1.9104,-1.9127,-1.9129,-1.9132,-1.9176,0,0,-1.9139,-1.914,0,0,0,0,0,0,0,0,-1.9058,-1.9062,-1.9097,-1.9097,-1.9097,-1.9115,-1.9114,-1.9147,-1.9108,-1.9103,-1.9105,-1.9103,-1.9125,-1.9127,-1.9135,-1.9177,-1.9178,-1.9139,-1.9141,-1.9142,-1.9142,0,0,0,0,0,0,0,-1.9056,-1.9061,-1.9116,-1.9098,-1.9098,-1.909,-1.9093,-1.912,-1.9122,-1.9104,-1.9102,-1.9106,-1.9124,-1.9133,-1.9136,-1.9179,-1.9139,-1.9141,-1.9143,-1.9144,-1.9258,-1.9259,0,0,0,0,0,0,-1.9055,-1.9059,-1.9115,-1.9116,-1.9073,-1.9093,-1.9096,-1.9111,-1.9122,-1.9122,-1.9107,-1.9104,-1.913,-1.9133,-1.9137,-1.9188,-1.9142,-1.9144,-1.9145,-1.9256,-1.9258,-1.926,0,0,0,0,0,0,-1.9053,-1.906,-1.9114,-1.9087,-1.9094,-1.9096,-1.9112,-1.9112,-1.9121,-1.9124,-1.9124,-1.9116,-1.9129,-1.9133,-1.9167,-1.9189,-1.9145,-1.9147,-1.9254,-1.9257,-1.9259,-1.9293,0,0,0,0,0,0,-1.9051,-1.906,-1.9077,-1.9088,-1.9095,-1.9144,-1.9114,-1.9113,-1.9125,-1.9122,-1.9133,-1.9133,-1.9128,-1.9163,-1.9169,-1.9191,-1.9149,-1.9252,-1.9255,-1.9258,-1.929,-1.9296,-1.9302,0,0,0,0,0,-1.9049,-1.9085,-1.9078,-1.9085,-1.9117,-1.9146,-1.915,-1.9144,-1.9127,-1.9144,-1.9147,-1.9132,-1.9186,-1.9167,-1.9173,-1.9196,-1.925,-1.9254,-1.9258,-1.9287,-1.9295,-1.9302,0,0,0,0,0,0,-1.9075,-1.9086,-1.9079,-1.912,-1.9132,-1.9141,-1.9163,-1.9153,-1.9169,-1.9166,-1.9158,-1.916,-1.9195,-1.9199,-1.9178,-1.924,-1.9215,-1.922,-1.9235,-1.9243,-1.9249,-1.9246,-1.9151,0,0,0,0,0,-1.9086,-1.9109,-1.9117,-1.9153,-1.916,-1.916,-1.9172,-1.9168,-1.9179,-1.9184,-1.9189,-1.92,-1.9219,-1.9231,-1.9249,-1.9291,-1.9292,-1.931,-1.9316,-1.9321,-1.9325,-1.9346,-1.9354,-1.9272,-1.9272,-1.9272,0,0,-1.9108,-1.9117,-1.9132,-1.9158,-1.9167,-1.919,-1.9165,-1.919,-1.9206,-1.9187,-1.9219,-1.9223,-1.9235,-1.9272,-1.9289,-1.9277,-1.9348,-1.9326,-1.933,-1.9331,-1.9351,-1.9359,-1.9366,-1.9274,-1.9274,-1.9273,0,0,-1.9159,-1.917,-1.92,-1.921,-1.9224,-1.9225,-1.9232,-1.9243,-1.9246,-1.9278,-1.9264,-1.9283,-1.9317,-1.9326,-1.9334,-1.9391,-1.9378,-1.9397,-1.9427,-1.9449,-1.9455,-1.9461,-1.948,-1.9487,-1.9401,-1.9401,-1.9402,0,-1.9184,-1.922,-1.9216,-1.9243,-1.9255,-1.9241,-1.9271,-1.928,-1.9299,-1.9307,-1.9293,-1.9336,-1.9342,-1.9381,-1.9395,-1.9404,-1.9411,-1.9395,-1.9455,-1.946,-1.9466,-1.9483,-1.9491,-1.9404,-1.9403,-1.9403,-1.9403,0,-1.9249,-1.9274,-1.9297,-1.9317,-1.9332,-1.936,-1.936,-1.9374,-1.9369,-1.9371,-1.9403,-1.9412,-1.9431,-1.944,-1.9434,-1.9478,-1.947,-1.9456,-1.9431,-1.9476,-1.9492,-1.9499,-1.9407,-1.9406,-1.9405,-1.9405,0,0,-1.9316,-1.9336,-1.9344,-1.9353,-1.9368,-1.9387,-1.9414,-1.9435,-1.9447,-1.9461,-1.9483,-1.9512,-1.95,-1.951,-1.9505,-1.9524,-1.9567,-1.9507,-1.9507,-1.9517,-1.9614,-1.9623,-1.9632,-1.956,-1.9561,-1.9562,-1.9613,0,-1.9367,-1.9416,-1.9414,-1.9459,-1.9482,-1.9469,-1.9493,-1.9505,-1.9507,-1.9526,-1.9528,-1.9549,-1.9531,-1.9537,-1.9555,-1.9558,-1.9586,-1.9554,-1.9578,-1.9579,-1.9573,-1.964,-1.965,-1.9698,-1.9619,-1.962,-1.9621,0,-1.9433,-1.9451,-1.9498,-1.9511,-1.952,-1.9542,-1.956,-1.9579,-1.9591,-1.9592,-1.9604,-1.9597,-1.9623,-1.96,-1.9635,-1.9614,-1.9624,-1.9627,-1.9628,-1.9628,-1.9601,-1.9641,-1.9713,-1.9719,-1.9632,-1.9631,-1.963,0,-1.9475,-1.9511,-1.9544,-1.9552,-1.9568,-1.9584,-1.9591,-1.9602,-1.9615,-1.9631,-1.9638,-1.9657,-1.9666,-1.968,-1.9678,-1.9661,-1.9714,-1.969,-1.9714,-1.9714,-1.9724,-1.9723,-1.9797,-1.9734,-1.9733,-1.9733,-1.9733,0,-1.9531,-1.956,-1.9563,-1.9583,-1.9615,-1.9613,-1.9645,-1.965,-1.9661,-1.9681,-1.9672,-1.969,-1.9687,-1.9705,-1.9704,-1.9733,-1.9738,-1.9738,-1.9737,-1.9738,-1.9737,-1.9742,-1.9738,-1.9735,-1.9735,-1.9734,-1.9734,0,-1.9582,-1.9586,-1.9621,-1.9634,-1.9638,-1.9661,-1.9671,-1.969,-1.9693,-1.9718,-1.9724,-1.9728,-1.9749,-1.9749,-1.9773,-1.9771,-1.9807,-1.9803,-1.9803,-1.9801,-1.9824,-1.9822,-1.9902,-1.9912,-1.9845,-1.9845,-1.9846,0,-1.9616,-1.9639,-1.9655,-1.9669,-1.9677,-1.9699,-1.9712,-1.9711,-1.9725,-1.9742,-1.9758,-1.9779,-1.9795,-1.983,-1.9834,-1.9852,-1.9847,-1.9874,-1.9849,-1.985,-1.9845,-1.9843,-1.9845,-1.9878,-1.9879,-1.988,-1.988,0,-1.9677,-1.9678,-1.9698,-1.9719,-1.9735,-1.9751,-1.9765,-1.9777,-1.9777,-1.9793,-1.9816,-1.9829,-1.9854,-1.9874,-1.9892,-1.9898,-1.9889,-1.9889,-1.9895,-1.9895,-1.9893,-1.9893,-1.9814,-1.9886,-1.9885,-1.9885,-1.9885,-1.9884,-1.9719,-1.9739,-1.9753,-1.9776,-1.9787,-1.9802,-1.982,-1.9826,-1.9845,-1.9866,-1.9864,-1.9889,-1.9901,-1.9925,-1.9932,-1.9951,-1.9941,-1.995,-1.9952,-1.9954,-1.9956,-1.9892,-1.9954,-1.9954,-1.9954,-1.9954,-1.9954,0,-1.9778,-1.9787,-1.9808,-1.983,-1.9848,-1.984,-1.9856,-1.987,-1.9893,-1.9906,-1.9923,-1.9949,-1.9969,-1.9975,-1.9994,-2.0008,-2.0004,-2.0013,-2.001,-2.0012,-1.9964,-1.9956,-2.0015,-2.0015,-2.0015,-2.0015,-2.0015,-2.0015,-1.981,-1.9842,-1.9845,-1.9883,-1.9891,-1.9917,-1.9927,-1.9939,-1.995,-1.9979,-1.9996,-2.0001,-2.0011,-2.0031,-2.0049,-2.005,-2.0057,-2.0067,-2.0066,-2.0021,-2.0015,-2.0009,-2.0001,-2.0069,-2.0069,-2.0111,-2.0112,-2.0112]},{"header":{"parameterUnit":"m.s-1","parameterCategory":1,"la1":30.2991,"la2":30.254,"lo1":-89.0895,"lo2":-89.0444,"dy":0.0017,"dx":0.0017,"nx":28,"ny":28,"refTime":"2024-05-12T09:00:00:Z","depth":0,"parameterNumber":3,"parameterNumberName":"V-component_of_WINDS"},"data":[0,0,0,0,0,0,0,0,0,0,0,0,0,0,0,0,0,0,0,0,0,0,0,0,0,0,0,0,0,0,0,0,0,0,0,0,0,0,0,0,0,0,0,0,0,0,0,0,0,0,0,0,0,0,0,0,0,0,-2.2672,-2.2674,0,-2.2877,-2.288,-2.2882,-2.2967,-2.2966,-2.2966,-2.2966,-2.3171,-2.3177,-2.3183,0,0,0,0,0,0,0,0,0,0,0,0,0,-2.235,-2.2355,-2.2672,-2.2675,-2.2677,-2.2877,-2.288,-2.2883,-2.2967,-2.2966,-2.2966,-2.2965,-2.3169,-2.3176,-2.3183,0,0,0,0,0,0,0,0,0,0,0,0,0,-2.2516,-2.2357,-2.2672,-2.2744,-2.2752,-2.2877,-2.288,-2.2883,-2.2967,-2.2966,-2.2966,-2.2965,-2.3167,-2.3176,-2.3184,-2.3251,0,0,-2.3211,-2.3215,0,0,0,0,0,0,0,0,-2.2506,-2.2527,-2.273,-2.2739,-2.2749,-2.2896,-2.2842,-2.3007,-2.2967,-2.2885,-2.2966,-2.2965,-2.308,-2.3096,-2.3136,-2.3261,-2.327,-2.3212,-2.3217,-2.3221,-2.3224,0,0,0,0,0,0,0,-2.2494,-2.2519,-2.2753,-2.2733,-2.2744,-2.2764,-2.2787,-2.2873,-2.2983,-2.2892,-2.2899,-2.2922,-2.3085,-2.3127,-2.3141,-2.3273,-2.3212,-2.322,-2.3225,-2.3228,-2.3465,-2.3465,0,0,0,0,0,0,-2.2472,-2.2509,-2.2747,-2.2759,-2.2623,-2.2771,-2.2796,-2.2849,-2.2983,-2.3003,-2.2923,-2.2926,-2.3112,-2.3131,-2.3149,-2.3237,-2.3221,-2.3229,-2.3234,-2.3464,-2.3465,-2.3466,0,0,0,0,0,0,-2.2464,-2.2492,-2.2738,-2.2636,-2.2669,-2.2777,-2.2836,-2.2854,-2.2896,-2.3006,-2.3025,-2.2946,-2.3112,-2.3136,-2.3226,-2.3245,-2.3233,-2.3241,-2.3462,-2.3464,-2.3465,-2.3412,0,0,0,0,0,0,-2.2455,-2.2489,-2.2516,-2.2636,-2.2674,-2.2813,-2.2837,-2.2858,-2.2911,-2.2917,-2.3033,-2.3051,-2.3114,-2.3212,-2.3234,-2.3257,-2.3248,-2.3461,-2.3463,-2.3465,-2.3413,-2.3412,-2.3411,0,0,0,0,0,-2.2443,-2.2492,-2.2517,-2.2545,-2.2711,-2.2814,-2.2835,-2.2908,-2.2913,-2.294,-2.3011,-2.3048,-2.3239,-2.3221,-2.3246,-2.3272,-2.346,-2.3463,-2.3465,-2.3413,-2.3412,-2.3411,0,0,0,0,0,0,-2.2369,-2.2509,-2.2538,-2.2628,-2.2709,-2.2828,-2.2865,-2.2904,-2.2984,-2.2985,-2.307,-2.3096,-2.3178,-2.3234,-2.3211,-2.3344,-2.3353,-2.336,-2.3305,-2.3304,-2.3303,-2.3288,-2.3255,0,0,0,0,0,-2.2364,-2.2437,-2.2555,-2.2622,-2.2661,-2.2756,-2.2804,-2.2853,-2.2939,-2.2973,-2.3051,-2.3132,-2.3211,-2.3261,-2.3339,-2.3422,-2.3448,-2.3452,-2.3451,-2.3449,-2.3455,-2.3503,-2.3506,-2.3473,-2.3473,-2.3473,0,0,-2.2352,-2.2437,-2.2478,-2.2609,-2.2678,-2.2751,-2.2784,-2.286,-2.2915,-2.2984,-2.3074,-2.3134,-2.323,-2.3317,-2.3358,-2.3366,-2.347,-2.3452,-2.345,-2.3457,-2.3506,-2.3509,-2.3511,-2.3475,-2.3474,-2.3474,0,0,-2.2369,-2.2441,-2.2506,-2.2574,-2.2678,-2.2741,-2.2756,-2.2871,-2.2914,-2.3006,-2.306,-2.3126,-2.3259,-2.3327,-2.3378,-2.3422,-2.3458,-2.3445,-2.344,-2.3486,-2.3488,-2.3491,-2.3507,-2.3512,-2.345,-2.345,-2.345,0,-2.2341,-2.2455,-2.2533,-2.2607,-2.2663,-2.2732,-2.2797,-2.2859,-2.2983,-2.3019,-2.3026,-2.3197,-2.3266,-2.337,-2.3381,-2.342,-2.344,-2.3432,-2.3482,-2.3486,-2.3489,-2.3505,-2.3511,-2.3447,-2.3448,-2.3448,-2.3448,0,-2.2416,-2.2494,-2.2534,-2.2654,-2.2714,-2.2783,-2.2871,-2.2923,-2.2967,-2.3029,-2.3121,-2.3208,-2.3306,-2.3334,-2.3377,-2.3444,-2.3445,-2.3466,-2.3476,-2.3489,-2.3505,-2.3512,-2.3444,-2.3445,-2.3446,-2.3446,0,0,-2.2391,-2.2555,-2.2568,-2.2623,-2.2744,-2.2805,-2.2877,-2.2975,-2.3017,-2.31,-2.3163,-2.3275,-2.3296,-2.3354,-2.3405,-2.3446,-2.3476,-2.3462,-2.3466,-2.3462,-2.3555,-2.3539,-2.3545,-2.3501,-2.3502,-2.3504,-2.3547,0,-2.2424,-2.2558,-2.2631,-2.2734,-2.2807,-2.2874,-2.2937,-2.3017,-2.3077,-2.3147,-2.3213,-2.3292,-2.3313,-2.3349,-2.3392,-2.3463,-2.3496,-2.3461,-2.3559,-2.3562,-2.3533,-2.3554,-2.3536,-2.3573,-2.3554,-2.3555,-2.3556,0,-2.248,-2.2565,-2.2675,-2.2789,-2.2822,-2.2877,-2.2973,-2.304,-2.3132,-2.3173,-2.3239,-2.329,-2.3368,-2.3373,-2.3481,-2.3456,-2.3501,-2.3542,-2.3545,-2.3556,-2.3559,-2.3565,-2.3587,-2.3592,-2.3567,-2.3566,-2.3566,0,-2.2451,-2.2592,-2.2677,-2.2723,-2.2857,-2.2894,-2.2951,-2.3043,-2.3097,-2.3181,-2.3217,-2.3307,-2.3356,-2.3425,-2.3499,-2.3496,-2.36,-2.3611,-2.3636,-2.3634,-2.3655,-2.3652,-2.3683,-2.3683,-2.3683,-2.3683,-2.3683,0,-2.2481,-2.2546,-2.2666,-2.2718,-2.2793,-2.2876,-2.2948,-2.301,-2.3091,-2.3156,-2.3219,-2.3278,-2.3372,-2.3443,-2.3501,-2.3582,-2.3604,-2.3639,-2.3653,-2.3633,-2.3629,-2.3663,-2.3663,-2.3685,-2.3684,-2.3684,-2.3684,0,-2.2461,-2.2544,-2.2641,-2.2761,-2.2792,-2.2842,-2.2944,-2.2997,-2.3061,-2.3142,-2.3166,-2.3266,-2.3352,-2.3433,-2.3548,-2.3587,-2.3669,-2.3688,-2.3638,-2.3646,-2.3667,-2.3664,-2.3721,-2.3733,-2.3724,-2.3724,-2.3724,0,-2.2474,-2.2526,-2.2652,-2.2701,-2.2758,-2.2835,-2.2891,-2.2975,-2.3031,-2.3141,-2.318,-2.3271,-2.3349,-2.3484,-2.3566,-2.3655,-2.3676,-2.369,-2.369,-2.3668,-2.3677,-2.3673,-2.3678,-2.3688,-2.3688,-2.3688,-2.3688,0,-2.2489,-2.2528,-2.2607,-2.2702,-2.2768,-2.2845,-2.2925,-2.2961,-2.306,-2.3119,-2.321,-2.327,-2.3389,-2.3479,-2.3577,-2.3635,-2.3678,-2.3687,-2.3698,-2.3678,-2.3647,-2.3664,-2.3634,-2.3686,-2.3686,-2.3686,-2.3686,-2.3686,-2.2486,-2.2536,-2.2633,-2.272,-2.2789,-2.2862,-2.2918,-2.299,-2.3067,-2.3171,-2.3216,-2.3307,-2.3398,-2.3535,-2.3593,-2.3665,-2.3674,-2.3689,-2.3693,-2.3695,-2.3691,-2.3635,-2.3683,-2.3683,-2.3683,-2.3683,-2.3684,0,-2.2505,-2.2571,-2.265,-2.276,-2.2828,-2.2865,-2.2955,-2.3009,-2.3089,-2.3172,-2.3248,-2.3351,-2.3439,-2.3529,-2.3622,-2.3662,-2.3684,-2.3684,-2.3681,-2.3694,-2.3678,-2.3659,-2.3664,-2.3664,-2.3664,-2.3664,-2.3664,-2.3664,-2.2522,-2.2608,-2.2659,-2.278,-2.2846,-2.2937,-2.2985,-2.3053,-2.312,-2.3233,-2.3307,-2.3366,-2.3451,-2.3551,-2.3633,-2.3657,-2.3688,-2.3682,-2.3712,-2.3694,-2.3695,-2.3696,-2.3679,-2.3688,-2.3688,-2.3722,-2.3723,-2.3723]}]]